Theta_e
336 337 327 328 329 331 329 323 304 309 309 302 304 306 305 312 312 311 311 314 313 318 324 327 325 323 324 322 324 323 326 322 324 319 318 338 346 346 345 345 344 349 349 350 353 354 354 353 352 351 350 350 350 352 352 353 354 354 354 355 355 354 354 354 354 354 353 354 354 353 353 353 352 352 352 352 351 349 349 348 347 346 346 346 344 341 342 342 342 341 344 344 344 344 345 345 345
326 327 328 329 327 325 315 316 307 305 306 303 304 307 306 311 310 308 309 310 313 319 324 327 327 326 327 325 325 328 329 329 334 335 339 344 348 343 345 346 347 347 348 351 351 351 351 353 352 351 351 350 350 351 352 353 354 354 355 355 354 354 354 354 354 353 353 354 353 353 353 353 352 352 352 351 350 348 347 346 347 349 347 345 342 342 342 342 342 342 344 344 344 344 343 343 345
326 327 322 327 323 318 316 316 302 302 301 299 303 306 309 308 309 309 310 312 315 320 324 325 327 325 325 321 321 323 322 334 336 341 339 346 340 341 344 347 349 348 350 351 351 350 352 352 352 351 350 350 350 351 352 353 354 355 354 354 354 354 354 354 353 354 353 353 353 353 353 353 352 352 351 351 350 349 349 348 347 347 348 345 343 342 342 342 342 343 344 343 344 343 343 345 344
332 326 319 317 312 317 310 310 306 303 299 301 302 308 308 309 309 310 311 313 315 317 319 321 319 324 323 319 324 326 330 334 337 340 336 342 345 344 345 348 350 347 350 349 350 350 351 352 351 350 350 350 350 351 352 353 354 354 354 354 354 354 353 353 354 354 353 353 353 351 352 352 352 351 352 351 349 348 346 344 344 345 345 343 342 342 341 341 344 345 344 344 344 344 345 345 345
324 319 320 317 312 308 308 308 306 305 300 302 301 308 310 311 311 311 311 313 314 316 316 317 319 323 322 325 325 324 331 337 338 344 344 345 347 346 347 348 347 346 347 349 351 350 352 350 351 351 350 350 350 351 353 354 354 354 353 354 353 354 353 353 354 353 353 353 353 352 352 352 352 351 350 348 347 346 345 345 344 345 345 344 342 341 343 344 344 345 345 345 345 345 345 344 344
319 319 322 318 310 312 309 303 303 303 305 308 305 308 311 312 312 311 312 313 314 315 315 315 314 317 324 325 327 335 338 327 341 343 345 344 346 348 348 347 344 344 346 349 351 352 353 351 351 350 350 349 351 352 354 354 353 353 353 353 353 354 354 353 353 353 353 353 352 352 352 351 351 351 350 349 349 349 348 347 346 345 343 344 344 344 344 345 345 345 345 346 346 346 345 344 344
317 317 315 314 312 312 302 302 303 304 306 309 307 309 311 313 313 312 312 312 313 314 315 313 315 316 315 328 341 341 345 345 340 344 347 346 348 349 348 345 344 344 347 350 351 353 352 351 351 351 350 350 351 353 354 353 353 353 353 353 353 353 353 353 353 353 353 352 352 352 352 351 351 350 350 349 348 347 346 345 345 345 343 342 344 344 345 346 347 347 346 346 346 345 346 345 344
320 312 312 307 305 307 302 302 304 306 306 310 312 311 312 313 313 312 311 311 310 311 312 314 315 313 317 320 320 340 344 346 347 349 348 348 349 346 347 346 345 345 348 351 353 353 353 351 351 351 350 350 352 353 353 353 353 353 353 353 353 353 353 353 353 353 352 352 352 351 351 351 350 349 348 348 346 345 343 343 344 344 344 343 343 345 345 346 347 346 346 346 344 344 344 345 344
318 314 314 307 302 305 303 303 304 308 307 310 311 314 316 314 313 312 311 312 311 312 312 314 315 310 317 316 331 340 343 347 348 350 348 348 346 346 347 346 344 344 347 348 353 353 351 351 351 351 350 352 353 354 353 353 353 353 353 353 353 353 352 352 352 352 352 351 351 351 350 350 349 348 347 347 346 345 344 343 343 344 344 344 344 345 345 346 345 345 345 345 345 344 345 345 344
314 313 306 305 305 299 302 303 304 306 307 310 311 312 312 313 312 312 313 311 312 312 313 314 314 311 315 317 327 338 341 348 348 347 347 347 347 348 346 346 344 344 344 349 351 351 350 352 350 351 352 353 354 354 354 354 353 353 353 353 353 352 351 351 352 352 351 351 350 350 349 348 347 346 345 345 344 344 343 343 343 344 344 344 344 345 344 345 345 345 345 345 346 345 344 344 345
307 313 314 304 300 299 299 301 303 307 308 310 311 314 314 314 313 311 312 312 314 312 313 314 312 314 314 321 337 347 346 347 346 344 346 347 348 346 344 344 344 344 346 347 347 349 350 350 352 351 354 354 354 354 354 353 353 353 353 353 352 350 350 350 351 351 350 350 349 348 346 345 344 343 343 343 343 342 342 342 343 343 343 344 343 344 344 343 345 345 346 347 348 347 345 345 345
306 308 309 301 300 300 302 302 303 305 308 309 309 313 315 314 313 310 311 310 312 312 312 314 312 316 312 319 337 343 345 346 346 346 346 347 344 344 343 344 344 344 348 347 347 349 349 348 350 353 354 354 354 354 354 353 353 353 353 352 350 350 350 350 351 350 350 348 347 345 343 342 342 342 341 342 342 342 343 343 343 343 343 343 343 343 344 344 344 345 345 345 345 346 346 345 347
308 310 306 303 302 303 303 302 304 306 306 307 309 313 315 313 311 311 312 312 311 311 312 316 317 316 311 322 342 343 340 346 347 347 346 343 343 342 344 345 344 346 348 349 346 345 346 345 346 349 353 354 354 354 353 353 353 352 351 350 351 350 350 350 350 349 348 347 346 344 344 343 343 342 341 341 341 342 342 343 343 343 343 343 344 344 344 344 344 345 346 345 346 347 347 346 344
309 310 308 302 307 304 302 302 304 304 305 309 312 313 314 312 312 313 313 310 311 310 316 319 316 318 315 322 336 339 342 347 347 348 345 344 344 345 348 345 347 347 346 346 345 345 345 343 347 347 352 355 354 355 353 352 352 351 350 350 350 350 350 349 349 348 347 345 344 344 344 343 343 342 341 341 341 342 342 342 342 343 343 343 342 343 344 344 345 345 345 346 346 346 346 345 345
309 312 308 305 304 305 306 302 303 304 305 310 312 311 313 314 314 313 312 310 311 317 321 320 320 316 317 318 327 330 342 347 347 347 347 347 347 348 346 347 349 346 344 344 344 344 344 343 345 347 350 350 353 353 354 354 351 352 351 351 350 350 350 349 348 347 346 344 344 345 344 343 342 342 342 341 341 342 343 343 343 343 344 343 343 343 343 343 344 342 344 344 345 345 345 344 343
313 311 308 303 301 302 305 305 306 304 305 311 313 312 312 312 314 312 312 313 312 321 320 315 323 316 319 318 323 341 345 347 347 348 347 347 348 348 346 347 345 344 345 346 345 345 344 342 344 346 345 349 350 351 352 354 353 351 351 351 350 350 349 348 347 346 345 345 344 344 344 344 344 343 342 344 342 342 343 343 343 344 344 345 344 345 345 343 342 343 339 344 342 342 344 343 341
314 312 303 303 300 302 304 305 307 302 307 311 313 313 310 310 314 314 316 316 311 312 318 317 319 321 322 329 340 346 346 347 347 348 348 346 344 343 344 343 343 344 344 344 345 345 344 344 345 346 346 350 350 351 352 352 353 352 351 351 350 349 347 346 346 345 346 345 345 344 344 347 346 347 346 344 344 344 343 343 344 344 344 345 345 346 346 347 346 345 345 342 345 343 343 343 341
311 304 302 300 303 302 307 306 308 311 309 309 310 313 311 308 312 313 315 314 314 314 316 320 322 318 326 337 345 346 346 345 346 345 344 343 343 340 340 341 342 341 342 343 344 344 343 345 345 346 346 347 349 350 351 350 353 352 352 352 351 349 346 347 348 348 349 348 345 347 350 343 343 348 347 346 346 346 345 344 345 345 345 345 345 346 347 346 347 347 347 347 345 347 346 341 339
306 304 303 300 304 306 310 310 311 310 310 311 311 313 311 310 312 314 310 312 312 312 315 318 319 324 331 338 343 343 343 345 345 345 343 343 341 341 340 340 341 342 339 342 342 345 345 344 346 346 346 347 350 349 351 351 351 351 350 350 349 346 347 348 348 346 346 343 344 345 344 345 344 346 347 346 347 349 348 346 346 346 346 346 345 346 347 347 347 348 347 349 347 348 344 337 336
308 305 301 302 307 308 310 311 311 312 312 311 311 311 310 310 311 315 312 311 314 312 313 315 316 322 325 331 341 342 344 343 345 345 343 343 343 342 341 341 341 341 341 341 342 345 344 344 345 347 346 346 348 348 350 350 351 351 350 350 348 348 347 348 347 345 346 346 345 347 345 347 348 352 349 349 350 347 348 347 347 346 346 346 345 347 348 348 347 347 347 348 349 342 336 333 336
308 305 302 304 308 306 309 311 312 312 312 311 312 313 310 310 312 312 310 308 310 313 317 316 319 319 324 334 341 342 343 343 343 344 343 343 343 344 343 341 340 340 341 342 342 343 344 345 345 345 346 345 348 347 349 348 350 347 349 349 347 345 345 345 346 346 347 347 347 347 347 349 348 350 351 350 352 349 347 348 348 348 347 346 346 349 345 344 347 336 339 342 338 337 338 337 338
308 305 307 308 309 307 310 311 312 312 313 311 312 310 311 314 311 310 311 307 307 312 314 315 317 318 327 333 340 342 342 343 343 343 343 343 343 343 343 342 344 343 343 340 340 342 343 344 345 344 346 345 347 346 346 347 349 346 348 346 346 346 344 344 345 346 346 349 347 348 348 349 348 348 351 349 348 348 348 348 349 348 349 346 346 348 343 343 343 340 337 338 341 339 337 339 341
302 306 307 309 309 307 310 311 311 311 311 310 310 312 313 312 309 311 311 310 311 316 317 317 320 320 334 336 340 341 343 343 343 343 343 343 343 343 343 342 341 340 340 340 342 342 343 345 344 345 345 345 348 347 347 348 346 348 347 345 345 344 343 344 342 343 346 348 348 348 349 347 349 348 349 351 351 350 350 352 351 352 349 345 348 346 344 344 343 340 339 339 339 340 339 340 341
305 302 307 307 309 308 310 310 311 311 310 309 313 314 311 310 307 312 310 313 314 315 316 318 321 322 329 327 339 342 343 344 345 346 345 345 344 344 343 342 342 342 340 340 341 342 341 342 344 347 346 346 348 347 346 345 345 347 348 345 345 343 343 343 343 343 347 347 349 350 349 348 348 346 350 351 348 349 347 346 349 349 347 348 349 346 351 353 353 349 345 344 345 343 343 345 345
302 302 306 307 309 309 310 310 310 311 311 312 312 311 309 310 310 311 310 313 314 315 316 317 324 324 329 330 338 343 344 346 346 346 346 344 345 346 345 343 343 342 339 340 341 341 341 342 343 345 345 346 347 346 346 344 345 347 347 345 343 344 344 343 343 346 346 348 350 352 351 351 347 348 349 349 348 348 349 350 349 349 349 347 347 347 346 345 347 348 349 345 344 348 345 341 343
304 304 306 306 307 309 309 309 310 310 311 311 309 309 310 311 312 310 312 313 315 316 316 320 326 327 330 331 339 343 345 346 347 345 343 344 345 344 344 343 342 341 340 341 340 341 341 343 344 343 343 346 346 346 345 343 345 345 345 345 344 344 344 345 346 344 347 348 350 353 352 352 350 347 348 348 348 349 351 350 349 350 348 347 348 345 346 348 344 350 346 341 347 340 341 339 342
307 305 305 305 306 307 310 308 309 310 310 311 308 307 308 311 310 305 314 316 315 315 318 322 329 327 333 333 339 344 345 347 346 346 344 344 345 344 344 344 341 341 342 339 340 340 342 344 343 344 342 347 345 344 344 345 346 345 344 344 345 344 344 346 346 344 344 349 351 354 351 351 351 350 349 349 349 349 350 351 349 350 347 348 348 347 349 347 346 344 345 343 342 341 341 340 340
305 306 305 304 306 307 308 309 308 309 308 310 310 307 309 310 310 306 311 317 319 319 319 323 324 321 328 336 340 344 346 347 345 345 342 340 340 341 342 342 342 342 340 341 339 341 341 343 343 344 344 346 346 343 345 345 346 345 345 345 343 343 347 345 344 346 343 348 353 352 353 352 353 352 353 350 349 349 348 347 350 349 347 348 349 348 348 348 346 343 345 344 343 342 341 341 341
305 305 301 303 304 303 306 306 307 309 307 310 310 306 304 306 305 310 312 315 319 319 320 321 323 321 322 336 340 342 342 345 344 342 343 341 342 343 342 344 342 341 342 343 341 341 344 343 343 344 345 347 346 344 344 346 346 345 345 345 344 345 346 346 346 345 346 350 354 352 352 353 354 353 350 349 348 348 349 349 347 348 349 349 350 348 347 348 347 344 342 341 341 342 341 340 337
305 304 302 300 300 300 304 307 307 306 308 309 308 296 300 304 307 311 314 314 318 319 318 317 321 323 321 333 340 341 343 343 342 342 342 342 342 343 343 344 344 342 340 341 343 342 343 344 343 344 345 345 346 344 346 344 345 345 345 345 345 346 344 345 346 345 347 351 352 352 353 353 353 352 348 347 348 349 348 346 347 347 347 349 349 349 345 343 341 340 339 339 338 337 338 338 336
299 302 302 297 296 296 303 305 306 304 308 308 308 297 300 305 308 311 314 315 314 317 317 318 320 322 321 330 338 338 342 343 342 343 344 343 343 342 345 345 344 344 341 340 341 343 344 343 343 343 345 345 345 344 345 345 346 344 344 342 344 346 346 346 347 347 347 351 350 349 352 352 352 350 348 348 347 348 347 346 346 347 348 348 345 343 341 342 341 339 338 339 338 337 336 336 334
300 296 294 297 295 297 302 305 305 301 306 308 305 298 300 304 307 312 313 314 314 313 317 317 318 322 324 326 332 334 340 342 344 345 345 344 343 342 344 343 343 344 343 341 343 344 342 343 344 344 346 345 346 346 346 346 346 345 344 343 345 347 345 346 346 348 348 349 348 347 351 351 351 349 347 347 347 347 345 344 344 346 345 344 343 343 341 339 339 340 340 339 337 334 335 334 334
299 296 294 294 296 297 300 303 305 305 305 306 304 298 301 303 308 311 313 313 312 313 316 315 317 321 325 325 333 336 338 340 342 343 343 342 343 343 343 343 342 344 344 343 342 343 342 343 343 344 345 345 346 345 346 346 345 344 344 344 345 346 345 347 346 348 346 348 347 346 344 344 346 348 348 347 348 346 344 342 342 342 344 342 342 341 337 338 340 337 338 337 337 335 332 331 332
294 297 294 297 295 296 295 303 305 305 304 301 304 300 302 305 307 309 312 312 313 313 316 316 316 318 325 327 329 335 337 338 338 340 342 343 343 344 344 343 344 344 344 344 344 342 342 341 343 344 345 346 345 345 345 346 345 344 343 344 346 344 345 345 347 346 348 346 353 345 343 346 348 348 347 347 346 345 343 342 342 343 343 342 341 339 339 338 339 339 336 333 334 335 333 332 330
293 294 293 294 297 297 297 297 302 304 303 301 302 301 301 304 307 309 310 314 314 315 317 315 314 315 322 325 326 332 335 337 339 339 341 343 343 344 343 343 343 344 345 345 343 342 342 341 341 344 344 345 345 346 347 346 346 346 344 344 344 344 344 344 344 345 346 347 346 345 344 346 347 347 346 346 345 342 342 342 341 341 342 340 339 339 337 336 337 336 334 329 333 336 333 333 328
295 297 295 296 294 296 296 300 304 304 301 300 301 299 300 303 305 307 310 313 314 316 316 314 314 316 322 323 321 330 334 336 340 340 343 342 343 343 343 343 343 343 344 343 342 342 341 341 342 342 344 344 345 346 345 344 344 341 340 340 341 341 342 342 345 345 347 347 347 347 347 346 346 347 346 346 345 342 341 341 341 342 340 339 339 338 336 337 335 332 332 329 329 333 335 330 326
298 298 297 296 296 297 300 301 303 306 301 300 300 301 302 303 304 306 317 317 316 316 314 312 313 315 319 320 322 328 333 336 340 341 342 342 342 342 343 343 342 343 343 342 341 341 342 341 341 341 343 346 346 340 342 342 340 340 340 340 339 341 340 342 342 346 345 345 347 345 344 344 346 345 344 343 343 341 341 341 341 338 338 338 337 336 335 334 332 330 329 331 330 331 330 329 326
297 297 297 296 297 295 300 301 303 305 301 299 302 301 302 303 305 306 309 316 314 315 314 312 313 316 318 321 323 328 333 338 340 339 341 341 340 341 341 342 342 341 340 340 340 340 341 342 342 342 343 343 343 344 342 341 341 340 341 341 342 337 339 339 339 344 344 346 345 345 345 343 343 344 343 342 342 341 340 339 338 337 336 336 336 335 333 328 330 329 327 325 330 330 329 328 325
297 295 296 296 297 299 301 302 303 304 302 299 302 300 301 303 305 306 306 310 315 316 315 314 314 314 316 320 323 328 333 335 336 338 340 339 340 340 340 341 342 342 341 340 342 340 341 342 342 343 342 341 342 342 342 340 342 341 340 339 339 338 340 342 340 342 344 344 343 343 343 343 342 341 341 341 340 339 338 338 336 336 335 334 333 332 332 331 330 329 328 324 321 327 329 331 329
295 295 295 294 298 297 294 300 302 303 301 299 301 299 301 304 306 306 307 311 315 318 317 316 315 313 315 320 324 329 332 333 334 336 336 337 336 337 339 339 341 342 341 342 340 341 341 343 343 342 342 343 341 342 341 342 342 342 342 343 341 340 338 340 341 341 342 341 339 340 341 341 341 340 339 337 337 338 336 334 334 334 332 332 330 329 330 329 329 326 324 325 323 319 321 322 330
296 296 296 296 297 299 298 298 301 303 303 302 301 299 299 301 301 303 306 312 316 316 316 315 315 316 317 323 326 331 332 332 334 335 336 335 335 336 337 339 341 339 337 332 330 333 341 341 342 342 341 341 341 341 341 341 342 340 340 340 339 337 338 338 336 336 338 338 337 337 338 339 338 337 337 336 335 334 334 334 332 331 329 329 329 328 327 326 324 323 326 326 323 320 316 320 324
294 297 298 297 299 299 300 301 299 297 296 300 299 293 294 300 301 302 304 307 312 315 314 314 313 314 316 320 326 329 334 336 336 334 336 336 336 336 338 338 338 335 333 334 334 336 340 339 343 342 340 342 340 341 341 341 339 337 335 332 331 332 331 331 332 332 333 334 334 337 337 336 335 334 334 334 333 332 332 331 330 327 327 326 327 325 325 324 323 322 323 323 321 320 317 314 314
292 294 299 299 300 300 300 299 298 293 291 297 301 292 290 299 299 302 304 305 309 313 314 314 314 314 317 321 325 328 331 333 337 337 335 335 336 336 336 337 336 336 337 339 339 340 342 341 342 339 339 339 340 341 341 339 338 338 337 334 335 333 331 334 337 337 336 335 335 335 334 335 333 332 332 331 331 329 329 328 326 324 324 324 325 326 324 324 324 323 323 323 320 318 316 311 311
291 299 299 299 299 298 299 298 298 296 299 300 299 297 293 294 299 303 304 303 306 311 312 313 314 316 318 322 326 328 330 332 331 335 335 336 337 336 334 335 336 338 339 338 338 340 340 342 341 338 338 337 339 340 339 338 337 337 335 335 335 334 333 333 334 334 334 334 333 332 332 331 330 330 329 328 327 326 324 323 323 323 322 323 322 322 321 321 321 322 323 325 325 324 322 317 314
294 299 300 298 298 299 299 298 297 297 296 292 296 298 292 293 300 304 304 301 304 308 311 313 314 315 318 321 324 328 329 333 333 331 334 336 335 336 336 335 338 340 339 337 338 339 340 340 340 338 338 339 339 340 338 339 339 338 336 335 334 334 335 333 332 334 332 331 330 330 330 329 328 329 328 327 326 324 324 323 323 322 322 321 320 321 322 321 321 321 321 321 320 320 320 319 316
298 301 301 300 299 299 299 298 297 296 294 290 294 296 291 293 299 300 303 301 301 307 311 313 315 317 318 321 323 326 330 332 335 335 335 337 337 336 337 336 338 339 339 339 338 339 340 340 339 337 336 337 339 340 339 339 338 338 336 335 334 334 334 332 332 330 330 331 328 328 328 328 327 327 327 324 323 321 321 322 322 323 322 321 320 320 319 319 319 319 319 319 319 318 318 318 317
301 300 298 297 297 296 298 298 297 295 288 291 297 298 295 290 296 299 299 300 303 309 311 314 315 316 318 321 322 324 327 327 332 333 335 338 338 337 335 335 337 339 338 338 338 337 338 337 337 336 337 338 339 339 340 339 338 338 337 337 335 334 333 332 330 329 329 328 328 327 327 328 328 327 325 324 323 322 323 323 323 322 321 319 318 317 316 315 317 317 317 318 317 317 316 316 316
299 296 295 295 294 295 294 294 296 288 286 293 297 297 297 288 294 299 305 306 307 311 311 313 314 314 317 320 322 325 327 324 330 332 333 336 336 334 334 334 336 336 337 336 337 338 337 337 337 336 337 337 339 339 339 339 337 337 337 338 336 334 332 331 331 329 328 326 327 326 328 327 327 326 326 324 323 324 324 323 322 321 320 319 316 316 315 314 314 314 315 316 316 316 316 315 315
296 295 294 289 287 288 284 289 284 286 287 294 297 298 294 293 298 302 304 309 311 313 313 314 314 314 317 319 321 324 326 327 331 328 332 334 333 331 331 333 335 335 334 335 335 336 337 337 338 336 336 337 338 339 338 338 338 338 337 337 336 335 333 332 331 330 329 327 327 327 327 324 324 323 323 322 322 322 321 321 321 319 318 319 317 314 315 315 315 314 315 314 315 316 316 316 314
294 291 290 287 284 283 280 284 288 289 293 298 297 299 294 298 300 304 304 308 312 314 316 316 315 315 317 318 321 323 323 325 329 331 332 336 334 332 332 333 335 335 335 335 336 336 337 337 338 337 336 337 338 338 337 337 337 338 337 336 335 333 333 334 332 331 330 329 329 329 328 325 323 322 322 321 321 320 320 321 321 320 319 318 317 316 315 314 314 311 313 312 312 313 314 314 313
293 296 293 290 290 286 281 285 282 285 288 294 300 295 292 293 298 305 307 310 313 315 315 316 316 317 317 320 322 322 323 328 330 330 332 334 335 333 332 334 335 335 335 336 336 336 336 336 336 336 336 337 337 338 338 337 337 337 337 337 336 334 334 333 332 333 331 330 330 329 328 326 322 323 322 322 321 322 322 321 319 318 317 317 315 315 314 314 314 312 313 314 312 313 313 313 313
295 296 297 292 291 296 287 290 290 290 290 291 294 292 298 298 309 308 308 309 313 315 314 314 314 315 318 319 320 319 323 326 328 330 333 335 336 334 333 335 336 335 336 335 335 335 335 336 337 337 337 337 337 337 337 337 336 337 336 336 335 334 334 334 333 332 332 332 331 328 327 325 328 324 323 321 321 321 319 318 317 317 316 316 315 315 314 314 314 313 312 312 311 312 312 312 312
293 294 289 293 300 297 291 291 296 293 291 288 295 295 299 304 306 309 308 307 311 313 313 312 315 317 318 318 319 320 323 327 329 330 331 334 335 335 335 335 336 335 335 334 335 336 336 336 336 337 337 337 337 337 337 337 337 336 336 335 334 333 334 333 332 333 333 332 330 329 328 327 327 324 322 321 319 319 318 317 316 316 315 315 315 314 314 314 313 312 312 311 311 312 312 311 311
295 290 294 300 302 300 294 287 289 288 285 287 294 292 295 296 291 306 307 304 309 311 311 312 314 316 316 317 318 319 322 326 328 328 332 334 335 335 335 334 335 336 336 334 334 337 337 337 336 336 337 336 337 337 337 337 336 335 335 334 333 333 332 333 332 332 331 329 328 328 328 325 324 323 322 320 320 318 318 317 316 315 315 314 314 313 312 313 313 312 312 312 311 312 311 312 311
295 294 301 293 287 287 293 291 284 284 284 287 292 294 295 297 298 302 303 304 307 310 312 312 312 314 314 315 316 319 323 327 329 330 332 332 335 334 334 334 335 336 336 335 335 335 337 336 336 336 336 337 337 337 337 337 337 336 335 334 334 334 334 333 332 331 330 328 326 326 325 324 324 323 321 320 319 318 317 316 316 315 314 313 313 313 313 313 313 311 311 310 311 311 310 309 310
300 300 297 300 296 292 289 290 294 292 285 286 289 293 291 300 301 304 304 306 308 309 310 310 311 313 314 315 316 319 322 323 329 331 332 332 334 335 335 335 334 335 336 336 336 335 335 336 336 336 337 337 336 336 337 336 336 336 335 334 334 332 332 332 331 329 328 326 325 325 324 323 323 321 321 320 318 317 317 316 315 314 312 312 312 312 313 312 312 311 310 310 310 310 309 308 308
292 292 291 293 295 298 297 297 294 291 288 288 287 287 294 301 305 306 306 308 310 310 309 309 310 312 314 316 318 320 323 326 328 328 330 332 333 334 335 336 335 336 336 336 335 334 336 336 336 336 335 336 336 336 336 335 335 334 334 333 332 332 331 330 329 328 326 325 325 324 324 324 322 321 321 319 317 316 315 315 313 312 311 311 311 312 313 312 312 311 310 309 309 309 308 308 308
294 293 291 293 291 290 288 287 297 295 292 288 288 287 297 304 307 307 308 310 310 310 310 310 311 312 316 318 321 323 326 328 324 326 334 333 333 335 336 336 336 335 335 335 334 335 334 335 335 335 335 335 335 334 334 334 334 334 332 332 333 333 331 329 328 327 325 324 324 323 324 322 320 320 319 317 317 316 315 314 313 312 311 311 311 311 312 312 310 310 309 308 309 307 307 307 308
Wind_Speed
14 9 7 5 4 6 8 6 8 5 9 13 11 6 4 3 4 7 1 8 10 4 2 5 3 4 8 6 10 14 17 14 13 5 1 4 4 11 9 9 15 16 15 15 15 15 15 14 15 15 14 14 13 12 12 12 11 11 10 10 11 10 9 9 10 10 9 10 9 10 9 9 11 11 11 10 10 10 9 9 9 8 9 10 10 9 9 9 8 9 11 10 11 12 11 11 11
8 7 5 5 4 5 3 4 6 11 12 8 8 6 11 5 12 4 2 6 7 4 1 3 4 6 1 1 5 9 13 12 12 4 6 7 10 9 11 12 14 15 15 15 15 14 14 14 14 14 14 14 13 12 12 12 11 11 11 12 11 11 10 9 9 9 9 9 9 10 10 9 10 10 10 11 9 9 9 9 11 10 10 11 10 10 9 9 9 10 12 11 11 11 11 11 10
8 6 5 3 5 5 7 6 8 8 8 9 3 6 8 9 5 6 4 5 4 4 3 4 4 3 6 6 5 9 1 6 6 3 5 9 11 8 14 14 13 14 15 13 14 14 12 14 14 14 15 14 13 13 12 11 11 11 11 11 11 11 10 9 9 9 9 10 9 9 10 10 9 9 9 10 10 11 11 10 10 11 11 11 11 11 10 9 9 11 11 11 11 11 10 9 8
8 5 4 5 7 6 7 6 9 10 11 10 6 5 4 6 7 3 2 2 4 1 5 9 9 5 6 5 8 8 9 4 2 5 6 9 6 12 13 14 14 13 12 12 13 13 13 15 14 15 15 14 14 13 12 11 12 12 12 11 12 11 10 9 9 10 10 10 10 9 9 10 10 10 11 11 12 11 10 10 10 9 9 8 10 11 10 10 10 10 10 10 10 9 8 8 7
10 5 2 5 7 6 7 8 10 10 11 8 10 7 11 6 6 3 4 1 4 3 3 6 6 3 6 5 5 3 5 6 5 5 7 8 13 13 14 15 13 12 12 13 13 13 15 19 15 13 14 14 13 13 12 12 12 12 11 11 11 11 10 10 10 11 11 11 10 10 10 9 10 11 11 11 11 10 10 9 9 9 8 9 10 9 9 10 10 10 10 9 9 9 7 6 5
8 6 3 4 4 3 5 7 9 11 12 9 10 7 11 8 5 3 3 3 2 3 2 3 5 6 9 7 6 7 4 5 4 7 8 8 13 16 16 13 12 12 12 12 12 13 13 19 15 15 13 15 13 13 12 13 12 11 11 10 10 11 10 10 11 11 11 11 10 10 10 10 11 11 11 10 10 11 11 10 9 8 8 8 9 9 10 10 10 10 10 10 9 7 5 4 3
6 4 4 5 4 4 8 11 13 12 13 14 14 7 9 7 2 8 5 5 2 2 1 5 5 3 8 6 10 8 7 5 3 6 7 12 14 14 15 12 12 13 13 11 12 13 17 16 16 14 14 13 14 13 13 13 12 12 11 10 10 11 11 10 11 12 12 11 10 10 11 10 10 11 11 11 10 9 9 9 9 8 8 8 9 9 10 10 9 10 9 8 6 5 4 3 2
4 6 3 8 8 7 11 13 14 12 14 17 14 15 6 4 4 11 3 13 7 5 3 6 2 7 11 8 5 5 8 9 9 11 15 13 14 15 12 12 12 13 12 11 11 13 17 15 16 14 14 13 13 13 14 13 12 12 11 10 10 10 10 10 11 12 11 11 11 11 11 10 11 10 10 10 9 9 9 9 9 8 7 8 8 9 9 9 9 9 8 6 5 4 3 2 2
6 6 4 5 8 8 12 14 15 14 18 13 12 9 13 1 4 6 8 2 3 4 5 5 5 10 9 2 9 6 8 7 11 12 13 14 15 14 9 12 12 12 12 11 14 14 14 15 15 13 13 14 14 14 13 13 12 12 12 11 10 10 9 9 11 12 12 11 11 11 11 12 11 10 9 9 9 8 8 8 8 8 8 7 9 9 9 9 8 7 6 6 5 3 3 2 2
8 7 6 6 7 14 14 13 16 14 18 17 15 13 12 11 11 8 9 6 5 2 4 3 2 8 3 5 8 6 6 8 10 12 12 13 13 12 11 12 13 14 12 13 12 12 12 15 14 12 11 13 15 14 13 12 12 12 12 11 11 11 10 10 10 12 12 13 12 12 11 11 10 9 9 8 8 8 7 7 7 8 7 7 8 8 9 8 7 7 6 5 4 3 2 2 2
9 8 9 9 11 14 15 13 13 14 19 17 19 13 7 10 10 9 6 12 7 8 4 2 11 3 4 10 7 5 8 9 10 12 13 13 12 13 11 11 12 12 13 14 12 12 12 13 15 10 10 14 12 11 12 12 12 12 11 11 11 9 10 10 11 13 13 12 12 11 11 10 9 9 8 8 8 7 7 6 6 7 7 7 7 8 9 9 7 6 5 4 3 3 2 2 2
10 12 10 13 13 13 14 15 14 13 18 20 19 14 9 12 11 9 9 10 8 5 9 3 4 3 8 9 6 7 8 9 11 11 13 12 10 12 11 9 11 11 14 13 14 11 12 13 12 12 12 13 11 12 12 13 12 12 11 12 11 11 11 12 12 13 12 12 11 10 10 10 9 8 8 8 7 7 7 7 6 6 6 6 6 7 8 8 7 6 5 4 4 3 3 2 1
12 11 14 13 13 14 14 18 15 16 15 18 18 13 13 14 12 12 9 7 3 4 12 5 6 6 7 7 7 9 10 9 11 12 13 10 10 10 9 10 11 13 12 14 13 12 13 13 12 12 12 14 13 12 12 12 12 12 12 12 12 11 12 12 12 12 12 11 11 10 9 9 9 7 7 7 7 7 7 6 5 6 6 5 5 6 6 7 7 7 6 4 4 3 2 2 3
12 12 12 15 14 15 16 17 18 17 15 17 16 14 16 11 13 12 8 5 8 10 3 8 5 6 4 7 7 8 8 10 13 12 10 11 10 9 11 10 11 12 12 12 12 13 12 12 12 12 12 12 13 13 13 13 13 13 13 12 12 12 12 12 12 12 11 11 10 10 9 8 8 7 6 6 8 8 8 6 6 6 6 6 6 6 6 6 6 6 6 5 4 3 3 3 2
15 11 12 14 15 17 18 16 18 19 15 17 14 15 11 10 11 6 9 8 11 3 9 3 8 2 4 7 6 3 12 13 13 12 11 11 10 10 11 10 10 11 11 11 11 11 12 12 12 12 11 12 13 11 11 13 15 14 13 13 13 12 12 12 12 11 11 10 10 9 9 8 7 7 6 6 7 8 8 7 6 5 5 6 7 7 6 7 6 6 6 6 6 5 5 4 4
12 13 13 15 17 19 16 18 19 19 15 18 13 19 16 14 13 11 11 12 8 5 3 5 5 6 4 7 4 13 16 14 13 12 11 12 11 10 10 10 10 10 9 9 12 10 11 12 11 10 11 11 11 11 11 13 14 14 13 13 13 13 12 12 12 11 11 10 10 10 9 8 8 7 7 6 5 6 6 5 6 5 4 5 6 6 6 6 6 5 6 5 5 6 6 6 7
13 13 16 15 20 22 17 16 18 17 16 16 6 11 12 13 11 12 8 3 12 7 7 6 2 3 3 7 12 17 16 15 13 14 12 11 10 9 9 8 8 8 6 10 9 9 9 12 12 10 11 13 11 11 11 12 13 15 13 14 13 13 12 12 11 11 10 10 10 10 11 8 6 7 9 6 8 5 6 6 5 5 3 3 4 6 6 6 6 6 4 7 6 8 8 9 9
13 14 16 21 19 23 16 19 18 15 17 18 11 15 11 12 11 10 6 11 10 13 7 5 3 1 3 9 13 15 17 16 14 15 12 11 10 9 9 8 9 9 8 9 9 9 9 10 11 11 10 12 12 10 9 10 11 13 13 12 10 11 11 12 10 8 9 7 10 9 8 6 5 8 5 8 5 8 7 5 5 3 3 3 4 4 6 6 6 7 7 7 10 9 12 8 9
16 14 18 22 20 18 18 19 20 18 18 15 14 16 15 15 14 12 13 13 14 15 11 9 8 6 6 8 14 15 15 15 15 13 14 13 10 11 10 10 10 10 8 8 8 8 9 8 9 11 12 11 12 11 9 10 13 10 12 11 9 11 11 11 9 8 7 8 8 7 5 5 5 5 4 4 5 6 8 7 5 5 4 5 6 6 6 7 8 8 10 10 11 14 9 8 8
20 17 19 23 20 21 21 22 21 20 19 18 19 11 13 12 16 14 13 12 13 15 9 12 11 9 10 8 10 13 15 15 15 14 14 13 11 11 11 11 10 9 9 9 9 7 8 8 10 10 11 12 11 10 10 10 10 10 10 10 9 9 9 9 7 7 7 7 6 4 4 4 4 4 5 7 9 4 6 7 8 8 9 7 9 7 8 9 10 11 11 13 10 8 8 9 9
16 21 20 21 21 22 23 24 22 21 19 20 18 17 16 13 14 13 14 13 14 13 15 14 13 14 13 14 14 13 14 15 16 14 14 14 12 10 10 10 9 9 8 9 9 9 9 10 10 11 11 11 11 10 9 9 9 9 9 9 9 8 8 6 6 6 5 5 4 4 5 4 4 4 5 4 1 4 4 4 6 5 5 7 10 6 7 7 9 8 8 10 8 8 11 5 3
15 23 26 25 21 23 24 23 23 20 19 22 21 20 21 11 11 16 19 16 10 13 14 18 20 11 17 15 15 14 15 15 16 16 15 15 13 12 10 10 9 11 9 9 11 11 9 11 11 10 10 11 11 9 9 9 10 9 8 8 8 7 7 7 5 5 5 5 5 5 5 4 4 3 2 4 3 4 4 2 2 4 2 7 8 7 7 7 7 9 8 9 10 6 2 1 1
19 21 26 27 27 24 18 21 23 23 19 22 23 20 17 16 13 15 19 20 15 15 13 8 6 5 16 11 15 14 15 16 16 16 16 15 14 13 10 10 10 10 9 10 11 10 9 10 11 11 10 10 12 9 8 8 8 8 8 7 7 6 6 6 6 5 5 6 5 4 3 3 3 5 7 6 7 5 5 7 6 6 8 4 4 6 1 1 3 1 1 1 1 1 0 2 3
21 20 23 26 27 29 25 22 19 21 25 26 22 16 20 19 18 13 18 17 16 13 16 1 3 3 15 13 13 14 14 15 15 15 15 14 13 12 11 8 10 9 9 9 12 11 10 12 12 11 11 11 10 9 8 9 7 7 7 7 7 6 6 6 5 4 5 5 5 4 3 3 4 3 3 2 2 3 3 2 2 2 1 1 0 3 3 3 6 8 8 9 8 9 6 10 4
24 23 25 23 25 26 26 26 25 20 22 23 24 21 21 20 17 12 17 16 14 17 15 9 9 5 5 8 12 12 12 13 14 14 12 12 12 11 12 9 10 10 11 11 11 12 12 11 12 12 11 11 10 9 9 8 7 7 7 7 6 7 5 6 6 5 4 4 4 3 3 3 3 2 2 2 1 2 2 2 1 2 0 2 1 3 2 3 1 3 2 1 6 3 3 2 3
23 26 22 22 23 23 26 26 27 28 16 14 20 24 22 20 21 21 15 16 15 16 14 9 6 7 7 8 10 11 12 14 14 14 14 12 12 12 12 11 10 11 11 11 11 12 12 12 12 12 12 11 10 9 8 8 8 8 8 7 6 7 5 5 5 5 5 5 4 3 3 2 2 2 1 1 2 2 2 3 3 2 2 2 0 1 2 3 2 3 3 3 6 6 6 3 2
18 23 25 24 22 25 21 23 26 27 24 19 22 25 26 21 18 15 17 18 11 17 12 7 8 7 9 9 10 11 12 14 15 13 13 13 12 12 12 12 12 12 11 12 10 10 11 11 12 12 12 11 9 10 8 8 8 8 7 7 7 6 7 6 6 6 5 5 4 4 4 3 2 1 2 2 2 2 2 2 3 2 3 2 1 1 1 1 1 1 1 2 1 2 2 2 2
21 19 22 28 23 22 23 20 23 25 24 26 20 21 23 24 20 19 17 16 13 17 8 9 8 12 11 10 11 11 11 12 12 13 15 15 12 13 14 12 12 12 11 12 11 10 12 12 13 12 11 11 9 10 8 9 8 8 8 7 7 7 7 7 6 4 5 5 5 5 3 3 2 2 1 2 2 3 3 3 3 3 3 3 1 1 1 1 1 3 1 1 2 3 2 2 2
19 23 17 17 21 20 26 26 18 20 19 24 21 20 25 25 26 24 22 12 18 14 10 12 11 14 11 11 10 10 11 12 13 13 14 13 12 11 15 12 11 11 9 9 11 13 13 13 12 12 11 11 10 10 9 8 8 7 7 7 7 7 7 6 5 5 5 5 4 4 4 3 2 2 2 3 3 3 4 3 4 3 3 3 3 2 1 1 1 1 1 1 1 2 1 2 2
15 19 15 15 17 20 27 22 20 23 20 21 18 19 21 27 28 22 20 17 11 14 17 16 12 13 11 11 10 10 11 13 14 13 13 13 13 14 15 14 12 11 10 9 11 13 11 9 9 10 10 11 10 9 8 7 7 7 7 6 7 7 7 6 6 5 5 5 5 4 4 4 3 2 3 3 3 3 3 3 4 3 3 3 2 1 1 1 1 2 1 1 2 1 1 2 1
17 15 17 14 13 17 24 21 22 26 19 21 21 20 20 23 24 23 20 18 20 18 17 16 15 15 14 11 10 11 12 12 13 13 14 14 13 12 15 14 13 11 10 12 12 14 13 11 9 9 9 11 10 9 9 8 8 8 7 7 7 7 6 5 5 5 5 4 5 5 3 3 2 3 2 3 2 3 4 4 3 3 3 1 2 2 1 1 3 2 2 2 1 1 2 2 3
15 14 19 15 17 15 22 23 24 24 20 24 22 21 23 21 22 21 22 18 21 20 20 19 16 15 14 12 13 13 12 12 13 14 14 14 14 12 14 14 12 11 11 12 13 14 12 11 11 11 11 11 10 9 9 8 9 8 7 7 7 7 6 6 5 5 5 4 4 4 3 2 3 3 3 4 3 3 4 4 3 3 3 2 2 0 1 1 2 2 3 3 2 0 1 3 3
16 17 15 18 18 17 15 24 24 29 21 23 27 20 21 20 22 20 22 20 23 20 21 21 19 17 15 14 12 11 12 13 13 14 15 14 13 12 12 13 13 11 11 12 14 13 13 13 12 12 13 13 11 11 10 9 9 9 8 7 7 7 6 5 5 4 4 4 4 4 5 4 4 3 4 4 2 3 3 4 4 2 2 2 1 2 1 2 2 1 2 3 3 1 0 4 5
15 16 17 18 22 19 19 18 27 27 27 21 30 24 23 15 20 23 19 24 23 20 21 19 18 17 16 13 13 13 13 14 15 15 16 15 13 13 12 13 13 12 12 14 14 14 14 13 12 12 12 12 11 11 10 9 8 8 7 7 7 7 6 5 4 4 4 4 2 4 4 7 3 4 3 4 3 3 4 3 3 2 2 1 1 2 1 1 3 3 2 2 2 2 3 4 6
17 18 19 20 22 24 21 19 20 25 29 28 27 28 25 22 19 19 24 21 22 21 19 19 20 19 16 15 14 15 14 14 15 14 16 14 13 12 11 12 11 12 12 14 14 12 11 12 11 12 11 12 12 10 9 8 8 7 6 7 7 7 6 4 4 4 3 5 3 8 8 6 4 4 4 3 3 3 3 4 3 2 1 1 1 4 2 2 3 2 1 2 1 2 3 5 6
24 21 19 19 18 18 20 22 19 25 25 27 28 23 25 25 22 20 16 16 19 19 19 18 19 19 16 15 15 14 14 15 14 15 16 14 11 12 11 11 11 12 12 12 14 13 13 13 11 11 11 11 9 7 6 7 7 7 8 8 7 6 5 5 4 4 4 3 3 3 4 3 4 3 4 3 2 3 3 3 3 1 1 2 1 3 4 6 3 2 3 3 3 3 5 7 7
22 21 20 19 19 18 20 21 21 23 22 25 26 27 23 23 23 22 15 16 17 19 21 18 18 18 17 17 17 16 16 15 15 16 16 16 14 13 11 11 12 13 14 13 13 14 14 13 12 12 12 10 8 8 8 7 4 6 7 7 6 5 5 4 4 3 6 3 3 4 4 3 4 4 4 3 3 3 3 3 2 2 3 1 0 2 2 3 2 2 2 2 3 4 6 6 7
24 19 21 16 19 19 20 19 23 19 20 19 25 25 21 22 24 24 23 21 22 21 21 20 19 18 16 18 18 17 15 12 15 15 16 16 14 14 13 11 14 15 13 13 13 14 14 13 13 12 11 10 8 7 7 8 8 7 5 4 2 5 5 5 5 3 4 4 3 3 3 3 5 4 4 3 3 3 2 2 2 1 2 2 2 2 2 2 2 2 2 3 2 3 5 7 6
23 20 20 21 18 18 20 19 23 20 20 16 23 24 21 23 21 23 22 20 20 21 21 20 19 19 16 16 18 18 15 14 16 16 16 15 15 14 12 12 12 14 14 15 11 14 13 12 12 11 11 10 8 9 9 9 8 7 9 7 6 5 4 3 5 5 5 5 4 4 4 4 4 3 3 4 3 3 2 2 1 1 1 1 3 3 3 2 2 2 0 2 4 2 3 2 6
18 20 19 15 17 20 16 20 21 20 15 16 20 21 17 20 20 22 22 21 19 20 22 21 19 19 18 18 17 16 17 17 18 18 17 16 16 15 13 13 13 13 11 9 11 12 12 11 12 12 10 10 11 11 10 10 8 8 8 8 5 3 5 6 5 5 5 5 5 4 4 4 3 3 4 3 3 3 2 1 0 1 1 0 1 2 3 3 2 2 2 1 1 5 4 3 1
21 22 18 17 22 20 19 16 17 13 15 17 18 16 16 19 19 19 21 22 22 21 22 22 20 18 17 15 16 17 18 18 18 19 17 17 17 16 16 13 12 12 10 9 5 4 8 14 13 13 11 11 10 9 10 10 9 9 8 8 7 7 6 5 5 5 5 5 5 5 4 3 3 3 2 2 3 1 1 1 1 2 1 2 1 3 3 2 2 3 2 3 2 1 3 2 2
18 24 24 20 20 22 25 19 20 13 15 19 20 14 16 18 23 22 19 19 22 22 23 23 21 20 19 18 17 17 17 17 18 20 19 18 17 16 14 14 13 14 14 11 11 13 12 14 13 11 11 10 10 11 11 11 11 11 10 9 9 7 7 7 7 7 7 6 6 6 5 4 4 3 2 4 4 2 2 2 2 3 3 3 3 3 3 3 3 4 3 3 4 4 4 4 4
17 21 25 22 21 20 18 22 20 18 16 18 22 17 11 15 21 22 20 21 23 20 23 23 21 19 19 17 17 17 18 17 17 17 18 18 17 17 16 14 15 15 15 13 12 13 14 13 11 13 11 12 13 12 12 10 11 9 10 9 8 8 8 5 5 6 6 5 5 6 5 5 5 4 4 4 4 4 3 3 3 4 4 3 3 3 3 3 4 4 3 4 3 3 3 5 5
18 18 25 22 20 21 24 24 20 14 14 15 22 17 14 12 15 19 22 22 23 23 23 23 21 21 20 18 18 17 17 19 18 19 19 18 18 17 18 16 15 15 14 14 15 15 17 14 13 13 10 11 12 12 13 12 11 10 10 8 8 9 8 8 8 7 6 6 6 5 5 5 4 4 4 4 4 4 4 3 3 4 3 3 4 4 4 4 4 4 5 4 4 3 2 3 4
15 23 24 23 19 17 17 19 19 17 15 15 17 23 16 13 14 22 23 23 24 25 25 23 23 22 21 21 18 18 19 18 19 18 19 19 19 18 17 17 16 16 15 15 15 15 15 14 13 13 11 11 13 15 13 12 10 10 10 8 8 8 10 9 6 6 6 5 6 4 5 6 5 4 4 4 4 4 4 4 4 4 4 4 5 5 5 6 6 5 5 5 5 4 4 3 3
20 17 20 20 22 18 19 17 20 18 16 15 18 20 15 16 13 16 23 23 24 24 25 24 23 23 22 20 19 20 19 17 17 19 19 20 18 18 17 17 16 17 15 16 16 15 15 13 14 16 15 13 14 16 14 14 13 12 10 9 11 11 10 9 9 7 8 6 5 6 5 5 5 4 3 3 3 4 4 4 4 4 4 5 5 6 6 7 6 6 6 6 5 6 5 5 5
18 21 19 19 22 19 16 13 16 16 16 17 21 23 19 13 17 15 18 21 21 18 18 20 23 23 23 21 21 19 18 18 16 18 18 20 19 18 20 18 18 16 14 16 15 15 14 14 15 16 16 14 16 16 15 14 13 12 11 12 13 12 12 12 12 10 9 9 8 7 6 4 4 4 4 4 4 5 5 5 5 5 6 5 5 5 5 6 6 6 7 7 7 7 6 6 6
22 18 18 17 16 17 16 13 14 14 14 20 24 21 25 17 14 19 16 20 21 21 23 24 23 24 22 20 19 19 19 18 18 18 19 19 20 20 19 19 16 17 16 16 16 15 15 15 15 16 15 15 15 15 15 14 12 12 11 12 13 12 14 12 13 14 12 10 9 7 6 5 5 5 5 4 5 4 5 5 6 6 5 5 6 5 6 6 6 6 5 5 6 6 6 6 6
21 19 19 18 14 13 17 16 16 14 15 17 23 24 20 20 14 15 20 19 21 22 20 22 24 24 23 23 23 20 19 19 19 19 18 19 19 20 21 19 18 17 17 18 18 17 16 14 18 18 17 16 15 14 15 15 13 12 12 13 12 11 12 12 13 11 9 8 8 7 7 7 6 6 6 5 4 5 5 5 5 5 5 5 6 6 6 6 6 5 5 6 5 5 5 5 5
21 20 18 17 16 16 16 18 12 13 19 18 20 23 15 12 18 17 16 20 19 20 20 21 24 24 24 23 22 20 20 21 19 19 19 20 18 20 20 19 18 17 18 17 18 17 14 13 17 19 18 16 13 13 16 15 14 13 13 12 12 12 12 12 11 10 8 8 8 8 8 7 6 6 7 7 6 6 6 5 6 6 6 6 6 7 6 6 6 6 6 6 7 6 6 7 6
20 20 19 16 14 14 16 15 18 19 15 18 21 18 14 18 11 21 19 15 20 19 19 19 22 23 22 22 22 22 21 20 18 18 19 20 20 21 19 19 17 17 19 18 16 16 15 15 16 18 19 17 15 15 15 15 13 14 13 12 11 11 12 10 10 10 10 9 9 9 8 8 8 8 7 6 7 7 7 7 7 7 7 7 7 6 6 6 6 6 6 6 6 5 6 6 5
19 19 17 18 16 12 16 11 15 16 14 15 15 12 14 13 4 12 20 11 16 18 20 20 22 21 22 20 20 20 19 19 19 18 20 20 21 20 19 17 17 17 19 17 18 15 16 16 17 18 18 19 18 18 16 14 13 12 13 12 12 12 10 11 10 9 9 8 9 9 9 9 8 9 7 7 7 8 8 8 7 7 7 7 7 7 7 6 6 6 6 6 6 5 6 7 6
18 19 19 17 15 14 9 11 10 5 10 13 8 12 13 13 6 6 15 16 15 17 19 20 21 22 22 20 20 20 18 18 17 19 18 20 22 20 18 18 15 17 18 18 16 17 18 17 18 18 18 17 18 18 16 15 13 13 13 13 13 12 12 12 11 11 9 8 9 9 8 7 6 8 8 7 8 8 8 8 8 8 7 7 7 7 7 7 7 6 6 6 6 6 5 6 5
15 18 18 18 18 13 11 10 7 8 14 10 15 17 16 14 10 13 14 19 18 17 18 20 20 22 22 20 19 19 19 19 19 20 20 21 21 21 19 18 17 17 19 19 18 15 16 16 18 19 18 18 18 17 15 15 14 13 14 15 14 13 13 12 10 11 11 11 10 8 9 8 9 9 8 8 8 9 8 9 8 8 7 7 7 7 7 7 6 6 6 6 6 6 6 5 5
16 17 18 18 14 15 12 7 13 13 13 10 16 18 15 14 10 13 16 14 18 19 19 19 20 21 21 20 21 20 20 18 17 18 19 20 19 20 19 19 19 18 19 20 18 17 15 15 18 18 17 18 17 13 13 13 14 12 12 12 13 13 12 12 11 12 11 10 10 10 10 9 9 9 9 9 9 9 9 8 8 8 8 8 7 7 7 6 6 6 6 6 6 5 6 6 6
19 18 18 17 11 13 13 9 9 12 13 12 15 17 12 14 11 14 17 16 17 19 19 20 20 20 18 18 19 20 19 19 17 17 19 20 21 21 21 20 20 19 20 19 19 17 18 16 17 17 16 16 17 16 14 13 12 11 11 11 12 11 11 12 13 11 9 10 10 11 10 10 10 9 9 10 9 9 9 9 8 8 9 8 8 8 7 7 7 6 6 6 5 6 7 6 6
17 17 16 15 11 9 9 10 12 13 11 12 9 12 11 12 12 15 16 18 18 19 19 17 18 19 19 18 17 17 18 18 18 18 18 20 21 19 20 19 19 17 16 17 17 17 16 16 18 18 18 18 17 15 15 15 13 13 14 14 14 14 14 12 12 12 10 10 10 10 10 9 10 9 10 10 10 10 10 9 10 9 9 9 8 8 7 7 6 6 6 6 7 7 7 6 6
15 15 16 16 15 14 14 11 11 12 13 10 10 9 9 10 9 15 13 15 17 18 18 16 17 19 18 16 16 16 17 19 19 19 19 19 21 21 20 18 17 17 16 19 17 13 16 17 18 17 18 17 17 16 15 15 13 11 14 14 14 13 14 11 12 11 10 10 10 10 10 10 10 9 10 10 11 9 9 10 10 10 9 9 9 8 8 7 7 7 7 5 6 7 7 7 6
Wind_Direction
279 236 318 293 304 289 294 245 281 285 240 240 240 207 118 195 313 182 58 192 169 99 309 149 174 141 335 39 38 50 38 33 42 354 87 93 156 131 150 137 129 132 132 131 131 143 141 140 140 142 141 144 144 142 142 144 143 139 139 134 128 127 128 127 121 122 119 116 113 117 119 113 115 109 107 108 107 104 98 98 95 93 96 95 95 100 112 109 108 108 103 101 106 103 95 98 93
301 298 287 303 301 301 223 4 287 276 238 242 250 235 125 152 224 33 86 5 24 78 260 103 119 56 5 61 62 66 41 41 34 41 75 111 122 140 142 138 136 134 135 131 137 144 148 141 140 141 144 143 145 145 145 145 144 142 138 132 127 127 131 126 127 125 120 119 117 120 110 100 101 106 109 111 113 101 95 86 77 72 90 98 100 105 114 120 117 107 98 103 107 104 104 96 92
298 297 288 231 276 249 302 246 260 265 271 244 191 220 77 207 197 134 49 36 53 138 127 58 9 150 172 183 190 78 100 82 104 103 90 137 136 139 148 136 137 135 131 133 139 143 144 143 140 143 143 143 146 147 149 148 147 141 136 135 130 129 132 133 132 124 120 113 114 114 110 110 106 105 103 101 89 84 84 84 88 90 93 100 107 108 110 116 112 106 113 111 105 104 100 92 94
276 255 294 318 320 279 254 238 258 265 263 257 249 146 224 239 154 82 74 51 78 253 187 148 211 97 280 31 21 99 83 74 66 142 141 183 138 150 139 139 135 136 132 136 143 140 146 137 140 144 143 145 148 150 150 151 145 139 136 135 134 131 135 140 131 124 118 116 116 113 112 109 109 102 100 92 88 85 82 82 82 80 85 92 100 117 122 114 116 110 109 110 103 99 97 95 79
292 276 176 329 304 297 291 227 248 244 246 246 261 137 238 247 100 251 101 125 107 48 286 110 212 120 18 58 240 90 109 135 112 74 97 85 116 140 138 137 145 138 136 141 142 134 130 139 141 140 145 146 150 151 152 149 143 138 138 139 137 134 139 138 135 125 119 119 117 115 114 111 106 102 95 92 93 91 87 82 83 88 94 105 108 115 119 120 115 115 112 113 113 106 98 92 86
275 262 183 296 294 24 273 272 249 252 272 248 240 167 241 184 159 258 127 130 78 110 5 36 356 121 156 77 4 100 164 209 106 99 120 127 130 133 138 149 144 138 139 137 130 132 142 138 141 141 146 148 152 152 152 147 142 138 140 142 140 138 136 138 133 123 122 120 117 114 110 109 107 105 100 96 93 91 87 82 83 95 106 111 119 116 117 116 118 119 117 114 109 103 106 95 80
311 300 227 242 240 229 265 250 244 244 240 268 269 253 207 190 165 240 151 202 136 136 307 39 254 209 168 105 84 66 55 75 174 94 117 127 132 136 145 147 143 134 134 137 134 133 137 138 137 143 148 150 154 153 150 145 141 141 142 142 141 139 137 139 133 126 124 119 114 113 107 107 107 102 99 95 91 91 91 87 85 93 106 119 118 123 122 123 123 118 118 108 113 119 109 111 94
257 271 224 219 250 214 235 247 250 237 243 258 239 247 236 156 246 240 158 258 96 252 112 106 280 284 79 204 107 97 76 64 89 96 113 127 136 143 146 139 136 134 133 131 133 124 130 137 137 143 149 154 153 150 146 142 143 143 144 142 142 138 137 137 128 123 118 114 115 111 108 104 99 101 99 99 99 94 98 101 98 95 100 114 118 121 123 121 115 115 105 118 120 138 142 117 108
231 240 256 295 241 254 237 230 232 233 262 270 265 236 8 338 279 312 243 183 229 186 231 61 15 257 96 235 87 112 80 85 95 114 123 132 139 141 142 142 139 138 134 128 113 127 141 138 137 146 153 154 152 149 147 146 146 146 145 143 137 131 134 130 126 121 116 115 112 106 102 94 91 92 97 101 99 98 97 105 110 107 107 111 124 124 127 120 124 118 127 132 146 153 138 128 101
244 209 213 221 235 243 250 236 234 223 243 249 250 214 212 224 243 239 292 206 224 2 92 272 339 288 79 116 113 105 89 110 121 122 132 134 133 136 145 145 142 135 137 127 134 133 139 141 137 145 153 149 150 147 147 145 147 146 144 138 134 135 136 129 123 115 112 110 103 97 95 92 91 95 98 105 109 106 108 113 112 110 110 116 126 128 129 131 125 137 136 146 151 138 150 118 102
244 206 238 229 221 237 240 240 232 230 237 245 255 251 192 228 244 237 224 287 61 270 37 239 230 199 278 82 74 115 112 128 137 128 136 127 136 147 147 141 135 141 129 129 139 135 138 146 139 138 137 145 149 141 139 145 146 142 139 135 127 128 127 124 116 111 109 103 100 99 97 97 100 99 103 107 107 111 112 108 115 116 114 117 126 132 136 138 136 136 144 151 146 153 129 168 77
240 236 199 231 237 232 236 244 232 220 233 237 244 233 226 231 223 245 219 238 193 211 257 139 0 0 258 123 126 128 124 140 131 129 128 135 147 145 139 133 135 135 127 133 131 139 146 145 147 144 141 146 141 138 143 146 145 137 133 124 127 126 127 117 114 107 101 101 101 98 95 96 97 98 102 107 111 118 123 124 118 122 124 121 125 131 132 134 142 143 155 162 176 171 173 168 175
238 231 236 233 230 230 240 258 238 225 216 234 240 221 241 234 223 230 242 227 159 252 241 168 4 246 281 61 110 125 142 128 127 130 137 149 137 140 135 128 137 128 133 132 133 138 147 151 149 157 145 140 139 141 143 138 133 126 124 128 128 123 123 116 111 106 103 105 101 98 100 101 100 104 108 113 118 123 128 127 135 134 139 142 136 138 143 140 147 154 154 165 172 194 198 186 193
232 231 240 245 237 238 227 231 255 248 220 221 207 237 220 222 225 243 255 229 219 222 32 66 261 17 291 139 144 148 133 140 127 135 145 136 140 130 123 135 125 132 142 139 139 139 146 158 149 154 150 165 149 151 142 138 132 127 129 127 127 127 119 116 111 110 109 106 108 110 113 111 109 111 116 120 125 129 130 139 142 146 148 153 161 158 158 162 154 161 164 164 176 197 216 213 226
237 230 243 247 247 236 228 228 224 241 241 229 184 201 203 213 253 209 248 260 260 119 81 270 338 243 61 260 117 178 142 147 137 142 140 135 129 121 131 126 132 142 147 142 139 146 151 156 152 154 162 168 161 157 155 141 137 133 130 131 130 128 121 121 118 115 118 119 121 123 120 121 118 118 123 129 135 133 128 132 141 150 150 160 164 170 171 170 172 168 170 174 183 195 208 226 238
232 237 236 243 239 241 234 229 228 237 234 235 197 191 178 211 218 235 225 235 262 98 333 228 183 300 17 272 42 122 136 143 141 142 140 132 127 129 128 133 143 145 151 157 141 155 157 157 154 158 169 166 171 160 153 150 139 136 132 131 132 130 128 123 122 126 128 133 133 137 139 137 146 143 150 152 147 144 161 136 138 147 167 160 166 170 173 179 183 180 184 187 198 199 212 222 229
227 237 240 232 239 233 230 237 228 223 241 250 199 212 177 210 175 227 267 70 258 255 178 252 271 132 328 35 110 127 133 136 144 149 145 143 141 140 142 146 142 143 161 170 138 158 165 153 152 157 173 161 172 159 153 152 143 140 139 138 136 134 130 130 131 136 140 141 148 162 167 169 154 147 179 131 165 137 107 134 152 154 166 186 168 178 184 185 189 193 192 208 209 213 217 222 218
223 222 232 236 235 236 233 231 240 246 235 228 170 215 202 222 219 197 203 238 237 259 214 169 209 194 40 119 130 128 134 143 155 157 161 159 161 151 154 153 152 150 162 165 146 165 162 150 155 163 173 168 167 162 155 152 149 158 151 149 149 142 141 143 156 153 157 150 173 175 189 171 185 154 161 148 165 135 158 140 154 149 191 196 208 190 192 196 196 198 210 214 217 219 220 216 207
222 219 230 236 231 239 236 238 241 244 241 243 199 206 196 224 242 225 205 222 229 239 218 220 200 154 104 123 130 140 146 146 158 166 162 169 168 161 172 161 168 154 176 156 147 186 152 163 166 163 173 173 167 162 159 152 160 163 159 159 153 157 157 165 166 165 156 162 177 188 171 172 184 124 145 171 110 126 128 168 161 195 202 216 209 207 196 202 202 201 211 218 221 223 220 223 209
219 232 229 233 231 237 236 238 242 241 253 241 240 169 192 211 234 249 231 228 229 225 236 225 227 164 141 153 162 150 152 157 158 166 166 170 172 167 184 168 173 151 174 172 152 176 151 154 176 164 172 177 168 165 163 161 161 162 163 164 159 161 165 180 171 175 165 175 170 166 191 176 159 121 142 124 128 137 151 185 195 200 209 214 216 210 203 201 204 207 211 220 228 226 223 225 216
207 229 231 234 226 235 234 239 240 244 242 249 242 237 193 199 228 229 243 235 235 242 202 241 202 215 164 164 166 162 158 160 166 170 173 175 180 172 184 168 176 158 174 169 157 175 174 162 172 169 175 177 174 168 168 165 163 166 166 168 164 166 170 165 174 167 169 171 160 183 190 186 156 169 148 146 101 152 182 194 189 197 199 194 196 213 191 173 199 193 203 209 215 227 225 223 331
222 228 233 237 237 235 232 236 242 242 242 247 238 240 245 178 214 221 235 244 238 220 235 221 221 192 159 167 171 167 162 164 170 173 176 180 182 169 185 163 171 157 173 174 164 168 177 172 173 174 175 177 181 168 176 160 164 168 167 169 162 178 154 165 173 172 168 177 187 192 195 190 152 137 163 183 167 215 216 188 204 215 235 252 164 234 194 178 195 206 196 190 211 212 174 211 49
229 228 234 233 235 242 234 230 234 238 239 242 236 228 249 237 208 224 227 235 237 258 258 355 334 137 141 166 168 171 168 167 173 176 176 181 191 177 185 169 171 170 170 168 154 156 175 174 181 172 176 177 183 171 174 165 173 163 170 164 164 163 157 161 174 178 166 183 194 196 196 183 181 162 163 206 208 198 165 171 191 184 185 185 186 211 83 253 249 73 250 241 302 307 299 139 204
228 234 229 232 234 236 240 245 233 230 234 239 242 214 233 241 232 210 234 227 235 247 258 140 283 297 145 189 183 169 171 171 173 178 177 183 193 174 166 175 161 174 171 166 151 152 182 181 176 171 178 178 180 176 171 171 168 165 162 153 165 154 161 165 171 183 165 174 182 189 177 207 182 190 153 167 156 172 145 154 150 180 93 145 80 282 85 327 323 23 353 1 10 26 355 310 59
228 232 232 235 232 234 235 238 245 238 233 235 242 220 226 237 247 227 231 232 225 234 241 206 227 248 169 177 166 168 171 169 172 178 180 182 195 160 161 181 169 175 179 169 155 160 177 179 173 175 177 176 179 174 171 173 167 167 158 169 157 154 171 167 170 171 170 176 169 183 179 224 214 148 162 144 141 120 121 117 136 83 57 74 68 317 114 2 106 157 206 145 252 132 302 301 335
224 233 233 236 238 233 229 234 237 241 241 234 234 234 228 233 244 249 240 235 219 236 225 187 158 203 189 184 169 172 172 171 172 179 181 183 187 162 163 184 178 180 184 169 167 152 164 174 174 176 177 179 172 180 172 168 166 165 169 167 150 165 167 170 166 167 186 164 157 175 177 191 265 135 156 148 135 124 123 98 103 98 85 99 262 351 24 148 223 167 242 185 277 174 200 106 240
223 230 239 238 233 243 230 230 233 235 236 226 222 226 237 234 239 239 228 241 240 230 221 180 167 201 185 192 176 176 175 174 178 174 177 189 171 166 170 184 185 188 173 159 178 155 156 169 178 177 180 174 176 179 174 165 169 172 168 162 155 173 162 177 186 171 175 157 156 160 181 164 181 182 169 171 143 141 102 114 111 123 110 80 63 106 276 75 344 312 351 346 274 43 34 68 20
240 236 231 236 237 238 235 226 233 228 228 227 225 227 236 238 230 234 232 209 233 249 197 203 183 228 203 192 181 174 176 175 178 178 181 188 181 183 182 188 187 183 174 167 164 154 152 176 174 177 179 175 181 180 170 168 176 171 165 163 164 165 167 185 184 169 164 153 153 167 167 165 179 169 156 169 147 137 136 125 107 93 107 120 90 95 128 308 11 46 33 84 14 15 37 35 78
232 238 240 237 231 231 236 233 230 227 225 221 223 234 233 234 229 226 231 213 205 221 203 223 209 235 219 188 186 177 180 178 182 185 185 187 182 178 183 187 182 179 167 186 155 153 156 173 175 177 176 172 189 179 175 171 172 167 165 163 169 164 177 183 172 175 164 147 157 168 157 156 188 152 172 163 149 150 128 136 119 116 107 104 101 71 62 235 108 140 79 31 36 65 52 38 35
240 233 234 229 230 226 228 221 219 221 225 219 209 229 230 227 231 226 231 218 199 189 207 224 213 223 232 192 194 186 182 183 190 186 183 186 185 174 183 181 183 178 160 174 165 148 161 172 174 177 177 174 188 178 174 181 172 164 165 173 165 173 180 176 172 171 153 154 153 154 158 153 188 153 162 143 151 136 127 114 116 112 96 107 117 171 120 52 65 41 330 97 11 266 125 92 203
228 224 234 236 226 226 216 211 206 223 211 214 208 234 232 227 226 226 224 198 219 202 213 218 209 209 222 202 197 201 183 190 188 185 184 184 187 179 180 179 174 188 157 168 164 159 164 174 172 173 180 176 182 176 178 179 168 173 169 174 168 178 173 175 169 163 163 167 165 152 162 163 179 168 150 121 162 143 126 118 112 111 100 112 98 77 10 32 57 2 7 348 100 12 43 59 53
221 217 219 213 229 224 213 202 207 215 204 208 213 233 236 226 224 216 221 194 222 206 211 214 217 208 211 207 195 207 185 188 185 184 184 178 185 178 174 170 170 194 172 162 152 160 163 172 178 168 176 178 178 175 178 175 174 176 177 169 161 181 172 172 172 167 159 173 162 127 164 179 181 171 148 145 178 148 123 110 88 81 85 61 44 292 121 163 79 37 21 344 310 26 189 106 87
213 220 216 214 217 226 215 201 208 212 215 206 215 230 231 227 234 223 213 195 212 207 211 216 219 208 209 207 202 197 185 185 184 187 186 179 183 177 171 166 173 191 158 156 161 160 166 166 180 174 176 179 174 176 177 175 174 177 177 170 163 176 175 170 168 160 164 173 99 74 46 280 236 149 151 142 129 113 107 101 95 97 100 81 65 297 204 343 82 74 44 349 325 269 208 103 89
208 207 226 218 217 214 226 206 201 207 211 212 211 225 228 228 220 227 218 199 209 200 209 221 217 210 203 212 204 198 189 184 185 184 182 182 177 173 168 171 170 180 149 157 161 167 170 172 178 180 178 177 175 176 174 172 174 176 168 166 165 173 173 173 159 155 158 103 96 108 155 241 196 132 134 128 118 112 98 106 112 100 81 88 73 277 28 22 36 345 54 1 338 289 149 129 119
205 200 212 221 220 220 218 219 186 202 203 219 214 221 228 228 232 217 226 204 192 198 209 220 220 210 201 213 211 202 195 187 184 178 175 176 171 163 159 164 164 176 166 162 160 163 170 175 179 180 180 177 176 171 157 169 165 173 163 164 169 174 172 164 155 155 140 127 167 162 196 173 161 131 122 125 129 121 124 117 110 91 81 240 178 254 179 170 59 6 40 101 312 295 134 114 117
219 212 218 221 222 214 222 218 216 190 204 214 219 217 221 222 228 234 219 170 191 201 212 217 214 207 194 204 221 208 200 190 181 177 165 170 155 158 159 159 165 175 165 159 158 164 173 173 183 178 186 174 163 138 172 165 172 178 168 171 174 172 160 151 152 150 133 77 124 151 139 133 126 122 110 104 99 88 95 88 94 208 93 271 19 327 313 40 66 98 87 95 113 108 90 110 121
231 228 226 223 226 233 222 218 222 188 207 211 217 225 218 216 221 225 154 178 195 208 212 211 210 211 204 201 201 203 199 192 179 170 166 163 156 160 153 169 170 171 162 156 161 170 174 173 181 183 179 153 166 166 190 152 175 187 172 171 162 160 146 139 137 162 113 158 173 147 143 162 122 125 118 108 107 105 91 79 64 22 308 56 60 60 335 61 83 116 93 82 126 131 130 130 125
240 234 232 228 224 226 223 211 218 196 201 210 216 224 217 217 219 221 205 184 198 204 211 212 212 212 212 200 201 200 194 180 170 159 159 160 160 159 165 173 175 170 164 158 168 171 173 177 181 177 166 150 175 169 169 164 184 175 135 116 182 165 154 164 146 127 113 122 127 124 125 131 120 114 111 97 80 74 80 85 54 36 286 62 13 38 78 121 137 139 139 122 138 157 143 147 152
233 239 228 221 219 221 225 218 212 202 195 218 212 219 217 219 216 215 215 197 204 206 210 212 215 216 209 202 196 197 185 178 170 154 159 160 156 161 168 173 176 170 162 163 162 169 171 177 178 171 167 161 173 180 178 167 164 149 156 170 176 163 170 145 132 130 122 126 120 118 113 128 127 117 106 88 72 47 42 47 58 68 344 120 160 143 140 113 98 83 155 131 134 124 130 160 171
229 233 230 225 237 215 210 215 210 200 195 209 213 212 219 220 215 218 210 196 200 206 212 216 217 218 209 205 198 189 176 179 173 164 163 164 168 169 175 174 173 164 154 142 164 171 171 174 170 171 165 166 167 172 172 149 156 157 152 161 157 157 151 127 129 119 121 130 125 106 101 92 98 110 87 97 76 44 51 53 142 80 90 22 114 132 113 114 101 107 92 85 166 160 167 132 351
227 230 219 224 228 214 217 196 204 188 199 218 216 214 215 216 211 210 212 192 200 201 210 215 216 217 213 201 202 190 179 183 173 165 162 162 169 174 177 167 170 158 126 110 109 204 172 170 172 171 158 165 168 167 169 153 142 141 131 109 110 111 121 136 135 137 140 135 121 126 115 98 92 94 98 45 105 108 82 144 84 94 99 77 90 104 102 84 104 93 70 48 14 59 110 105 130
218 228 219 226 223 221 205 203 192 193 206 205 218 213 213 203 212 209 206 193 201 203 207 211 212 209 210 200 198 191 183 181 174 167 163 167 170 169 165 167 159 125 137 164 172 171 170 181 180 169 164 154 161 168 165 150 152 147 143 137 138 149 153 161 165 158 154 160 144 129 132 125 114 93 97 82 36 63 115 98 123 123 101 89 69 81 93 92 70 81 68 90 83 63 113 122 108
216 210 214 227 231 225 211 212 193 208 210 192 213 226 210 205 207 207 203 199 199 204 210 208 205 204 205 196 195 190 186 186 180 168 168 166 163 164 165 159 145 148 163 163 167 177 180 189 173 169 165 167 163 170 154 157 154 155 155 162 150 151 160 146 139 151 154 139 124 133 110 99 98 85 73 76 83 76 79 86 86 81 85 86 85 91 90 76 68 48 63 81 90 98 105 111 110
219 213 205 230 234 217 206 214 213 211 216 210 201 217 239 207 201 202 203 201 199 203 207 206 200 199 199 196 192 188 188 187 180 170 168 167 164 166 166 153 161 163 161 162 172 181 186 187 175 172 171 168 164 162 160 165 165 162 167 174 161 170 165 152 155 137 139 139 125 117 117 101 90 90 88 90 103 99 95 101 103 103 115 111 108 91 79 83 91 75 63 66 50 43 63 82 85
221 209 196 212 233 231 231 222 218 215 207 219 196 207 226 230 199 200 199 205 201 204 203 200 199 198 197 198 191 186 189 187 183 178 171 161 164 161 158 158 166 163 159 164 170 176 181 183 174 172 168 172 169 164 161 162 165 172 174 174 166 171 159 149 125 121 117 114 121 119 115 107 99 90 92 109 122 127 135 127 111 107 105 106 103 93 83 77 73 77 79 69 69 67 62 67 97
223 219 208 212 218 230 239 216 215 208 218 218 205 196 216 214 224 190 196 204 203 203 201 200 198 194 194 194 192 188 186 185 183 174 167 160 160 161 157 159 168 168 167 166 171 174 179 176 174 174 173 181 173 172 170 163 171 175 174 178 172 168 162 152 158 149 128 130 131 132 126 129 119 114 114 106 104 114 112 105 102 101 93 84 80 86 92 85 80 77 74 78 77 79 63 61 70
215 218 210 207 208 221 235 225 212 211 216 223 217 194 208 218 210 214 190 202 202 197 199 199 197 195 192 191 190 188 186 183 187 175 166 157 152 153 151 164 169 167 166 170 167 177 175 173 170 178 176 176 174 174 170 167 180 181 179 175 177 165 160 161 161 163 158 164 161 149 153 146 164 154 149 142 152 138 130 117 112 102 98 99 99 102 97 94 89 85 83 80 77 76 77 81 73
209 209 216 199 201 210 219 229 233 220 212 219 223 208 198 225 201 219 199 195 202 198 200 196 195 193 188 187 191 187 185 184 183 171 167 153 148 147 156 166 168 162 163 165 166 172 176 175 173 176 178 178 173 172 172 174 182 183 183 176 173 167 167 170 166 164 166 157 154 154 158 160 163 155 159 154 146 131 114 114 116 116 108 105 102 101 101 99 98 95 87 85 84 79 82 80 81
203 210 209 199 195 195 204 212 216 213 216 210 215 213 202 214 227 207 208 190 196 203 204 198 193 190 188 188 189 186 181 184 180 171 166 148 147 151 159 164 167 165 166 166 169 173 177 179 178 175 177 176 175 171 176 178 179 184 180 176 168 168 173 174 169 158 154 150 152 156 156 168 166 168 162 146 138 139 126 129 127 117 112 108 110 111 106 106 103 98 93 93 85 84 74 73 78
198 212 198 195 194 189 195 201 209 216 224 222 210 209 221 210 222 230 217 184 189 198 207 199 193 191 188 186 185 185 183 184 181 172 164 151 155 157 159 166 171 169 170 170 170 175 174 177 179 179 173 175 164 167 178 181 186 182 175 169 173 173 177 174 171 165 165 163 163 166 166 170 171 171 164 156 156 151 140 128 121 114 112 115 113 109 113 115 113 110 107 100 96 92 92 91 88
201 210 197 202 203 189 186 190 195 208 206 213 209 206 212 213 206 205 236 195 187 199 204 198 192 192 189 186 186 187 183 179 176 172 166 160 154 159 163 171 174 171 170 173 172 175 173 175 179 179 175 172 166 176 178 183 186 180 174 173 175 176 175 166 172 170 169 170 163 165 170 160 166 171 163 148 153 141 129 125 123 122 121 119 119 118 116 114 111 110 104 96 97 93 96 94 92
198 199 196 207 201 182 201 191 202 201 206 205 202 210 203 224 17 195 214 207 186 196 203 195 189 190 188 189 188 186 181 179 176 172 165 161 156 157 163 171 170 169 172 172 171 172 174 174 174 179 178 173 173 175 181 181 183 179 176 173 173 173 171 167 168 168 172 168 164 166 163 192 164 148 156 148 142 141 135 131 133 127 128 128 127 127 128 118 116 116 110 111 104 103 106 106 104
188 203 204 206 203 201 195 202 236 224 213 213 194 213 212 200 171 206 209 198 179 190 197 195 188 188 188 190 189 184 179 179 174 172 171 161 157 161 167 173 170 172 168 171 172 172 173 170 173 181 181 177 172 177 178 180 177 177 171 168 167 172 172 171 166 166 155 145 165 162 156 186 130 162 139 149 149 140 139 140 133 132 132 133 132 130 123 122 126 124 122 122 120 123 113 106 101
188 202 194 209 218 210 203 203 177 214 203 200 194 206 211 197 201 183 219 203 177 191 197 196 189 189 190 190 188 181 175 177 178 175 171 163 167 167 166 173 174 171 165 166 173 170 170 170 174 178 181 176 175 177 175 176 173 173 170 169 169 174 172 166 163 160 161 165 163 155 157 155 167 156 157 150 149 143 139 139 136 135 135 133 134 133 132 131 132 121 126 125 122 123 122 120 111
210 197 186 214 192 204 197 215 190 191 201 206 197 210 214 208 203 180 201 199 178 193 197 195 192 189 189 186 186 181 176 169 176 172 170 169 168 170 163 171 173 175 160 164 168 173 171 172 178 181 177 177 177 174 168 173 173 174 171 166 172 173 170 166 165 167 165 160 152 142 150 156 160 152 154 152 148 146 145 143 143 138 139 139 138 135 137 139 130 128 131 129 138 139 126 117 114
216 204 208 215 212 213 196 211 194 201 197 202 189 201 214 208 195 173 193 194 189 193 194 195 191 188 187 183 182 181 173 171 175 170 173 174 171 171 168 168 172 174 168 165 168 173 176 169 174 179 176 176 177 176 172 170 169 162 165 166 167 171 169 167 166 156 157 157 146 147 153 157 157 157 152 153 151 149 151 150 147 145 142 143 144 143 146 136 138 139 142 144 140 137 130 127 126
199 208 208 199 222 205 226 211 215 201 201 200 196 201 216 209 198 178 194 194 196 195 194 196 190 184 184 179 176 178 173 167 168 170 178 177 168 167 169 167 170 168 167 165 165 172 171 173 175 176 176 175 173 177 177 171 171 168 168 168 172 173 170 169 153 155 157 153 146 148 154 155 158 156 153 156 156 156 156 156 150 149 150 149 149 149 145 148 146 150 144 138 148 144 138 129 123
199 197 202 198 201 197 204 206 210 211 204 195 202 209 207 203 199 178 201 193 196 193 193 192 184 179 175 176 179 177 168 169 168 171 176 172 171 167 167 163 164 166 163 171 168 171 171 176 176 175 175 175 173 178 178 170 169 164 168 173 170 170 170 161 153 154 153 149 152 151 153 157 159 156 160 159 160 160 158 157 152 152 153 152 154 151 153 153 151 145 141 149 147 142 135 136 135